Home > Weather > Stange > Past weeks

Flag for Norway Past Weather in Stange, Norway — Yesterday and Last 2 Weeks

Now
63 °F

Mild.


Feels Like: 63 °F
Forecast: 52 / 64 °F
Wind: 1 mph from North

Location: Haugedalshogda

Current Time: Jun 26, 2016 at 8:30:05 AM

Latest Report: Jun 26, 2016 at 7:00 AM


Visibility: N/A

Pressure: 29.93 "Hg

Humidity: 74%

Dew Point: 54 °F

Location of StangeLocation

Past Weather in Stange — Graph

°F

Stange Temperature Yesterday

Maximum temperature yesterday: 78 °F (at 4:00 PM)
Minimum temperature yesterday: 53 °F (at 5:00 AM)
Average temperature yesterday: 66 °F

High & Low Weather Summary for the Past Weeks

 TemperatureHumidityPressure
High78 °F (Jun 25, 4:00 PM)100% (Jun 21, 5:00 AM)30.16 "Hg (Jun 21, 5:00 AM)
Low33 °F (Jun 15, 4:00 AM)25% (Jun 14, 6:00 PM)29.57 "Hg (Jun 16, 8:00 PM)
Average57 °F68%29.86 "Hg
* Reported Jun 11 7:00 AM — Jun 26 7:00 AM, Stange, Weather by CustomWeather, © 2016

Note: Actual official high and low records may vary slightly from our data, if they occured in-between our weather recording intervals... More about our weather records

Advertising

Stange Weather History for the Previous 24 Hours

Scroll right to see more
 ConditionsComfort  
Time TempWeatherWind HumidityBarometerVisibility
7:00 AM
Sun, Jun 26
63 °FMild.1 mph74%29.93 "HgN/A
6:00 AM56 °FCool.1 mph89%29.96 "HgN/A
5:00 AM47 °FCool.1 mphN/A29.98 "HgN/A
4:00 AM47 °FCool.1 mphN/A29.99 "HgN/A
3:00 AM46 °FCool.1 mph98%30.00 "HgN/A
2:00 AM50 °FCool.1 mph97%29.99 "HgN/A
1:00 AM52 °FCool.No wind98%29.99 "HgN/A
12:00 AM51 °FCool.No wind96%29.99 "HgN/A
11:00 PM
Sat, Jun 25
57 °FCool.No wind86%29.98 "HgN/A
10:00 PM64 °FMild.1 mph71%29.96 "HgN/A
9:00 PM71 °FMild.2 mph47%29.94 "HgN/A
8:00 PM70 °FMild.3 mph50%29.93 "HgN/A
7:00 PM74 °FMild.2 mph44%29.91 "HgN/A
6:00 PM77 °FMild.3 mph37%29.92 "HgN/A
5:00 PM78 °FPleasantly warm.3 mph37%29.92 "HgN/A
4:00 PM78 °FPleasantly warm.5 mph37%29.93 "HgN/A
3:00 PM77 °FMild.5 mph40%29.93 "HgN/A
2:00 PM75 °FMild.5 mph44%29.93 "HgN/A
1:00 PM76 °FMild.3 mph41%29.94 "HgN/A
12:00 PM72 °FMild.6 mph50%29.95 "HgN/A
11:00 AM71 °FMild.6 mph55%29.94 "HgN/A
10:00 AM69 °FMild.5 mph63%29.94 "HgN/A
9:00 AM65 °FMild.3 mph74%29.93 "HgN/A
8:00 AM64 °FMild.3 mph82%29.93 "HgN/A
Weather by CustomWeather, © 2016

See weather overviewHow to use our weather pages